TimeEST,TemperatureF,Dew PointF,Humidity,Sea Level PressureIn,VisibilityMPH,Wind Direction,Wind SpeedMPH,Gust SpeedMPH,PrecipitationIn,Events,Conditions,WindDirDegrees,DateUTC
12:53 AM,57.0,46.9,69,30.23,10.0,Calm,Calm,-,N/A,,Mostly Cloudy,0,2012-11-12 05:53:00
1:53 AM,61.0,48.0,62,30.22,10.0,Calm,Calm,-,N/A,,Partly Cloudy,0,2012-11-12 06:53:00
2:53 AM,62.1,50.0,65,30.21,10.0,SE,5.8,-,N/A,,Overcast,140,2012-11-12 07:53:00
3:53 AM,62.1,50.0,65,30.20,10.0,SE,4.6,-,N/A,,Overcast,140,2012-11-12 08:53:00
4:53 AM,61.0,48.9,64,30.19,10.0,Calm,Calm,-,N/A,,Scattered Clouds,0,2012-11-12 09:53:00
5:53 AM,62.1,48.9,62,30.19,10.0,SE,3.5,-,N/A,,Mostly Cloudy,130,2012-11-12 10:53:00
6:53 AM,62.1,48.9,62,30.19,10.0,Calm,Calm,-,N/A,,Overcast,0,2012-11-12 11:53:00
7:53 AM,63.0,48.9,60,30.21,10.0,SE,4.6,-,N/A,,Mostly Cloudy,130,2012-11-12 12:53:00
8:53 AM,64.0,48.9,58,30.22,10.0,SSE,4.6,-,N/A,,Overcast,160,2012-11-12 13:53:00
9:53 AM,64.9,48.9,56,30.22,10.0,SSE,8.1,-,N/A,,Overcast,150,2012-11-12 14:53:00
10:53 AM,66.0,48.9,54,30.19,10.0,SSE,8.1,-,N/A,,Overcast,150,2012-11-12 15:53:00
11:53 AM,66.9,48.9,52,30.15,10.0,SSE,4.6,-,N/A,,Overcast,150,2012-11-12 16:53:00
12:53 PM,68.0,48.9,50,30.10,10.0,South,12.7,24.2,N/A,,Overcast,190,2012-11-12 17:53:00
1:53 PM,68.0,50.0,52,30.08,10.0,SSW,10.4,20.7,N/A,,Overcast,200,2012-11-12 18:53:00
2:53 PM,66.9,50.0,54,30.06,10.0,South,8.1,-,0.00,,Overcast,180,2012-11-12 19:53:00
3:53 PM,66.0,52.0,60,30.10,10.0,SSW,12.7,19.6,0.01,Rain,Light Rain,210,2012-11-12 20:53:00
4:53 PM,59.0,55.0,87,30.13,9.0,WNW,10.4,-,0.01,Rain,Light Rain,290,2012-11-12 21:53:00
5:34 PM,57.2,55.4,94,30.18,2.5,West,3.5,-,0.02,Rain,Light Rain,270,2012-11-12 22:34:00
5:53 PM,57.9,55.9,93,30.14,2.5,West,9.2,-,0.03,Rain,Light Rain,280,2012-11-12 22:53:00
6:40 PM,57.2,55.4,94,30.20,2.5,WSW,11.5,21.9,0.07,Rain,Light Rain,250,2012-11-12 23:40:00
6:53 PM,54.0,51.1,90,30.17,2.5,West,16.1,25.3,0.09,Rain,Light Rain,280,2012-11-12 23:53:00
7:00 PM,53.6,51.8,94,30.22,2.5,NW,16.1,23.0,0.00,Rain,Light Rain,310,2012-11-13 00:00:00
7:53 PM,48.9,46.9,93,30.24,2.5,West,10.4,-,0.02,Rain,Light Rain,280,2012-11-13 00:53:00
8:32 PM,48.2,46.4,93,30.30,2.5,West,8.1,-,0.02,Rain,Rain,260,2012-11-13 01:32:00
8:53 PM,48.0,46.0,93,30.27,2.5,West,8.1,-,0.04,Rain,Light Rain,270,2012-11-13 01:53:00
9:48 PM,46.4,44.6,93,30.32,2.5,NW,5.8,-,0.01,Rain,Light Rain,320,2012-11-13 02:48:00
9:53 PM,46.9,45.0,93,30.29,2.5,North,3.5,-,0.02,Rain,Light Rain,360,2012-11-13 02:53:00
10:53 PM,45.0,43.0,93,30.31,8.0,NNW,4.6,-,0.07,Rain,Light Rain,340,2012-11-13 03:53:00
11:38 PM,42.8,39.2,87,30.36,9.0,North,8.1,-,0.03,Rain,Light Rain,350,2012-11-13 04:38:00
11:53 PM,42.1,37.9,85,30.32,7.0,North,6.9,-,0.04,Rain,Rain,350,2012-11-13 04:53:00